| time (UTC) | temp C | wind direction | speed KPH | gust KPH | rain 1hr cm | rain 24hr cm | rain mn cm | humidity % | barometer mb |
| 20260509034005 | 18 | 301 | 3.2 | 9.7 | 0.00 | 1.30 | 1.02 | 71 | 1003.5 |
| 20260509033505 | 19 | 297 | 4.8 | 14.5 | 0.00 | 1.30 | 1.02 | 70 | 1003.4 |
| 20260509033006 | 19 | 282 | 4.8 | 19.3 | 0.00 | 1.30 | 1.02 | 70 | 1003.4 |
| 20260509032506 | 19 | 273 | 8.0 | 19.3 | 0.00 | 1.30 | 1.02 | 68 | 1003.3 |
| 20260509032005 | 19 | 288 | 8.0 | 19.3 | 0.00 | 1.30 | 1.02 | 69 | 1003.4 |
| 20260509031506 | 19 | 316 | 6.4 | 20.9 | 0.00 | 1.30 | 1.02 | 68 | 1003.3 |
| 20260509031006 | 19 | 290 | 8.0 | 20.9 | 0.00 | 1.30 | 1.02 | 68 | 1003.3 |
| 20260509030006 | 19 | 287 | 3.2 | 20.9 | 0.00 | 1.30 | 1.02 | 69 | 1003.3 |
| 20260509025505 | 19 | 292 | 6.4 | 20.9 | 0.00 | 1.30 | 1.02 | 69 | 1003.2 |
| 20260509025006 | 19 | 262 | 8.0 | 27.4 | 0.00 | 1.30 | 1.02 | 70 | 1003.2 |
| 20260509024506 | 19 | 294 | 8.0 | 27.4 | 0.00 | 1.30 | 1.02 | 70 | 1003.3 |
| 20260509024005 | 19 | 287 | 11.3 | 20.9 | 0.00 | 1.30 | 1.02 | 68 | 1003.3 |
| 20260509023505 | 19 | 252 | 9.7 | 20.9 | 0.00 | 1.30 | 1.02 | 68 | 1003.5 |
| 20260509023005 | 19 | 280 | 9.7 | 19.3 | 0.00 | 1.30 | 1.02 | 67 | 1003.5 |
| 20260509022506 | 19 | 274 | 6.4 | 19.3 | 0.00 | 1.30 | 1.02 | 70 | 1003.6 |
| 20260509021505 | 19 | 315 | 8.0 | 22.5 | 0.00 | 1.30 | 1.02 | 72 | 1003.6 |
| 20260509021006 | 19 | 288 | 6.4 | 22.5 | 0.00 | 1.30 | 1.02 | 71 | 1003.7 |
| 20260509020005 | 18 | 269 | 8.0 | 19.3 | 0.00 | 1.30 | 1.02 | 73 | 1003.8 |
| 20260509015506 | 18 | 275 | 4.8 | 22.5 | 0.00 | 1.30 | 1.02 | 74 | 1003.8 |
| 20260509014506 | 18 | 276 | 11.3 | 22.5 | 0.00 | 1.30 | 1.02 | 72 | 1003.9 |
| 20260509014006 | 18 | 270 | 9.7 | 20.9 | 0.00 | 1.30 | 1.02 | 74 | 1003.8 |
| 20260509013505 | 18 | 291 | 8.0 | 19.3 | 0.00 | 1.30 | 1.02 | 74 | 1003.9 |
| 20260509012505 | 18 | 269 | 9.7 | 20.9 | 0.00 | 1.30 | 1.02 | 73 | 1004.0 |
| 20260509012005 | 18 | 323 | 9.7 | 24.1 | 0.00 | 1.30 | 1.02 | 74 | 1004.0 |
| 20260509011505 | 18 | 299 | 9.7 | 24.1 | 0.00 | 1.30 | 1.02 | 73 | 1004.0 |
| 20260509011006 | 18 | 287 | 8.0 | 20.9 | 0.00 | 1.30 | 1.02 | 75 | 1004.0 |
| 20260509010005 | 18 | 281 | 8.0 | 19.3 | 0.00 | 1.30 | 1.02 | 73 | 1004.1 |
| 20260509005505 | 18 | 304 | 6.4 | 19.3 | 0.00 | 1.30 | 1.02 | 74 | 1004.2 |
| 20260509005006 | 18 | 320 | 8.0 | 27.4 | 0.00 | 1.30 | 1.02 | 75 | 1004.4 |
| 20260509004506 | 18 | 270 | 9.7 | 27.4 | 0.00 | 1.30 | 1.02 | 74 | 1004.5 |
| 20260509004006 | 18 | 285 | 11.3 | 19.3 | 0.00 | 1.30 | 1.02 | 73 | 1004.5 |
| 20260509003506 | 18 | 281 | 8.0 | 19.3 | 0.00 | 1.30 | 1.02 | 73 | 1004.5 |
| 20260509003006 | 18 | 294 | 6.4 | 19.3 | 0.00 | 1.30 | 1.02 | 72 | 1004.6 |
| 20260509002505 | 18 | 295 | 4.8 | 20.9 | 0.00 | 1.30 | 1.02 | 75 | 1004.6 |
| 20260509002005 | 18 | 293 | 8.0 | 20.9 | 0.00 | 1.30 | 1.02 | 72 | 1004.9 |
| 20260509001506 | 18 | 290 | 9.7 | 20.9 | 0.00 | 1.30 | 1.02 | 72 | 1005.0 |
| 20260509001006 | 18 | 279 | 8.0 | 20.9 | 0.00 | 1.30 | 1.02 | 74 | 1005.0 |
| 20260509000005 | 18 | 294 | 8.0 | 22.5 | 0.00 | 1.30 | 1.02 | 77 | 1005.2 |
| 20260508235505 | 18 | 309 | 11.3 | 22.5 | 0.00 | 1.30 | 1.02 | 78 | 1005.3 |
| 20260508235005 | 18 | 276 | 9.7 | 19.3 | 0.00 | 1.30 | 1.02 | 78 | 1005.4 |
| 20260508234005 | 18 | 316 | 8.0 | 19.3 | 0.00 | 1.30 | 1.02 | 80 | 1005.5 |
| 20260508233506 | 18 | 296 | 4.8 | 19.3 | 0.00 | 1.30 | 1.02 | 82 | 1005.6 |
| 20260508232006 | 18 | 338 | 4.8 | 16.1 | 0.00 | 1.30 | 1.02 | 83 | 1005.9 |
| 20260508231505 | 18 | 292 | 4.8 | 16.1 | 0.00 | 1.30 | 1.02 | 81 | 1005.9 |
| 20260508231006 | 18 | 330 | 3.2 | 19.3 | 0.00 | 1.30 | 1.02 | 83 | 1005.9 |
| 20260508230005 | 18 | 297 | 4.8 | 19.3 | 0.00 | 1.30 | 1.02 | 84 | 1006.0 |
| 20260508225505 | 17 | 295 | 6.4 | 14.5 | 0.00 | 1.30 | 1.02 | 83 | 1006.1 |
| 20260508225005 | 17 | 307 | 6.4 | 14.5 | 0.00 | 1.30 | 1.02 | 84 | 1006.1 |
| 20260508224505 | 17 | 293 | 6.4 | 11.3 | 0.00 | 1.30 | 1.02 | 85 | 1006.1 |
| 20260508224005 | 17 | 328 | 3.2 | 11.3 | 0.00 | 1.30 | 1.02 | 86 | 1006.2 |
| 20260508223506 | 17 | 280 | 3.2 | 8.0 | 0.00 | 1.30 | 1.02 | 88 | 1006.2 |
| 20260508223005 | 17 | 313 | 3.2 | 8.0 | 0.00 | 1.30 | 1.02 | 86 | 1006.2 |
| 20260508222505 | 17 | 306 | 3.2 | 9.7 | 0.00 | 1.37 | 1.02 | 88 | 1006.4 |
| 20260508222005 | 17 | 300 | 4.8 | 9.7 | 0.00 | 1.37 | 1.02 | 87 | 1006.4 |
| 20260508221506 | 16 | 310 | 3.2 | 9.7 | 0.00 | 1.37 | 1.02 | 88 | 1006.5 |
| 20260508221005 | 16 | 303 | 3.2 | 9.7 | 0.00 | 1.37 | 1.02 | 89 | 1006.6 |
| 20260508220005 | 17 | 347 | 1.6 | 4.8 | 0.00 | 1.37 | 1.02 | 90 | 1006.6 |
| 20260508215505 | 16 | 28 | 3.2 | 4.8 | 0.00 | 1.37 | 1.02 | 90 | 1006.6 |
| 20260508215005 | 16 | 3 | 1.6 | 4.8 | 0.00 | 1.37 | 1.02 | 90 | 1006.6 |
| 20260508214505 | 17 | 356 | 1.6 | 4.8 | 0.00 | 1.37 | 1.02 | 90 | 1006.6 |
| 20260508214005 | 16 | 20 | 0.0 | 4.8 | 0.00 | 1.37 | 1.02 | 92 | 1006.6 |
| 20260508213505 | 16 | 0 | 3.2 | 4.8 | 0.00 | 1.37 | 1.02 | 90 | 1006.6 |
| 20260508213005 | 16 | 8 | 1.6 | 3.2 | 0.00 | 1.37 | 1.02 | 93 | 1006.6 |
| 20260508212505 | 16 | 347 | 1.6 | 3.2 | 0.00 | 1.37 | 1.02 | 94 | 1006.6 |
| 20260508212006 | 16 | 109 | 0.0 | 3.2 | 0.00 | 1.37 | 1.02 | 95 | 1006.6 |
| 20260508211505 | 16 | 140 | 0.0 | 3.2 | 0.00 | 1.37 | 1.02 | 95 | 1006.6 |
| 20260508211005 | 16 | 165 | 1.6 | 3.2 | 0.00 | 1.37 | 1.02 | 95 | 1006.7 |
| 20260508210005 | 15 | 96 | 1.6 | 4.8 | 0.00 | 1.37 | 1.02 | 95 | 1006.7 |
| 20260508205505 | 15 | 357 | 1.6 | 4.8 | 0.00 | 1.37 | 1.02 | 96 | 1006.8 |
| 20260508205005 | 15 | 26 | 3.2 | 4.8 | 0.00 | 1.37 | 1.02 | 96 | 1006.7 |
| 20260508204505 | 15 | 3 | 0.0 | 4.8 | 0.00 | 1.37 | 1.02 | 96 | 1006.7 |
| 20260508204005 | 15 | 10 | 3.2 | 4.8 | 0.00 | 1.37 | 1.02 | 96 | 1006.7 |
| 20260508203505 | 15 | 36 | 0.0 | 1.6 | 0.00 | 1.37 | 1.02 | 96 | 1006.7 |
| 20260508203005 | 14 | 159 | 0.0 | 1.6 | 0.00 | 1.37 | 1.02 | 97 | 1006.7 |
| 20260508202505 | 14 | 158 | 0.0 | 1.6 | 0.00 | 1.37 | 1.02 | 97 | 1006.7 |
| 20260508202005 | 13 | 159 | 0.0 | 3.2 | 0.00 | 1.37 | 1.02 | 96 | 1006.7 |
| 20260508200005 | 13 | 165 | 1.6 | 3.2 | 0.03 | 1.37 | 1.02 | 96 | 1006.6 |
| 20260508195505 | 13 | 170 | 1.6 | 3.2 | 0.03 | 1.37 | 1.02 | 96 | 1006.6 |
| 20260508195005 | 12 | 187 | 1.6 | 3.2 | 0.03 | 1.37 | 1.02 | 96 | 1006.6 |
| 20260508193505 | 12 | 146 | 1.6 | 4.8 | 0.03 | 1.37 | 1.02 | 95 | 1006.6 |
| 20260508193005 | 12 | 118 | 1.6 | 4.8 | 0.03 | 1.37 | 1.02 | 95 | 1006.6 |
| 20260508192506 | 12 | 153 | 3.2 | 4.8 | 0.03 | 1.37 | 1.02 | 95 | 1006.6 |
| 20260508192005 | 13 | 162 | 3.2 | 4.8 | 0.03 | 1.37 | 1.02 | 95 | 1006.6 |
| 20260508191505 | 13 | 237 | 0.0 | 0.0 | 0.03 | 1.37 | 1.02 | 96 | 1006.5 |
| 20260508190005 | 13 | 315 | 0.0 | 0.0 | 0.00 | 1.35 | 0.99 | 95 | 1006.3 |
| 20260508185505 | 13 | 212 | 0.0 | 0.0 | 0.00 | 1.35 | 0.99 | 95 | 1006.2 |
| 20260508184505 | 13 | 213 | 0.0 | 0.0 | 0.00 | 1.35 | 0.99 | 95 | 1006.3 |
| 20260508184005 | 13 | 285 | 0.0 | 0.0 | 0.00 | 1.35 | 0.99 | 95 | 1006.3 |
| 20260508183505 | 13 | 291 | 0.0 | 0.0 | 0.00 | 1.35 | 0.99 | 95 | 1006.5 |
| 20260508183005 | 13 | 294 | 0.0 | 0.0 | 0.00 | 1.35 | 0.99 | 95 | 1006.5 |
| 20260508182505 | 13 | 248 | 0.0 | 1.6 | 0.00 | 1.35 | 0.99 | 95 | 1006.4 |
| 20260508182006 | 14 | 287 | 0.0 | 1.6 | 0.00 | 1.35 | 0.99 | 95 | 1006.2 |
| 20260508181505 | 14 | 6 | 0.0 | 1.6 | 0.00 | 1.35 | 0.99 | 95 | 1006.3 |
| 20260508181005 | 14 | 6 | 0.0 | 1.6 | 0.00 | 1.35 | 0.99 | 95 | 1006.3 |
| 20260508175505 | 14 | 6 | 0.0 | 1.6 | 0.00 | 1.35 | 0.99 | 95 | 1006.3 |
| 20260508174505 | 14 | 6 | 0.0 | 1.6 | 0.00 | 1.35 | 0.99 | 95 | 1006.2 |
| 20260508174005 | 14 | 6 | 0.0 | 1.6 | 0.00 | 1.35 | 0.99 | 95 | 1006.3 |
| 20260508173505 | 14 | 6 | 0.0 | 3.2 | 0.00 | 1.35 | 0.99 | 95 | 1006.3 |
| 20260508173006 | 14 | 6 | 0.0 | 3.2 | 0.00 | 1.35 | 0.99 | 95 | 1006.2 |
| 20260508172505 | 14 | 8 | 1.6 | 3.2 | 0.00 | 1.35 | 0.99 | 95 | 1006.2 |
| 20260508171505 | 14 | 196 | 0.0 | 0.0 | 0.00 | 1.35 | 0.99 | 95 | 1006.1 |
| 20260508171005 | 14 | 196 | 0.0 | 0.0 | 0.00 | 1.35 | 0.99 | 95 | 1006.1 |
| 20260508170005 | 15 | 196 | 0.0 | 0.0 | 0.00 | 1.35 | 0.99 | 95 | 1005.7 |
| 20260508165505 | 15 | 196 | 0.0 | 0.0 | 0.00 | 1.35 | 0.99 | 95 | 1005.8 |
| 20260508165005 | 15 | 196 | 0.0 | 0.0 | 0.00 | 1.35 | 0.99 | 95 | 1005.8 |
| 20260508164505 | 15 | 214 | 0.0 | 0.0 | 0.03 | 1.35 | 0.99 | 95 | 1005.7 |
| 20260508164005 | 15 | 273 | 0.0 | 0.0 | 0.03 | 1.35 | 0.99 | 95 | 1005.7 |
| 20260508163505 | 15 | 273 | 0.0 | 0.0 | 0.05 | 1.35 | 0.99 | 95 | 1005.9 |
| 20260508161505 | 15 | 201 | 0.0 | 0.0 | 0.25 | 1.37 | 0.99 | 94 | 1005.7 |
| 20260508161005 | 15 | 245 | 0.0 | 0.0 | 0.28 | 1.45 | 0.99 | 94 | 1005.9 |
| 20260508160005 | 15 | 246 | 0.0 | 4.8 | 0.33 | 1.47 | 0.99 | 94 | 1006.1 |
| 20260508155505 | 15 | 264 | 3.2 | 4.8 | 0.36 | 1.47 | 0.99 | 94 | 1006.2 |
| 20260508155005 | 15 | 264 | 1.6 | 9.7 | 0.53 | 1.47 | 0.99 | 94 | 1006.4 |
| 20260508154505 | 15 | 268 | 3.2 | 9.7 | 0.69 | 1.45 | 0.99 | 94 | 1006.6 |
| 20260508154005 | 15 | 254 | 6.4 | 9.7 | 0.69 | 1.45 | 0.99 | 94 | 1006.6 |
| 20260508153505 | 15 | 305 | 3.2 | 9.7 | 0.64 | 1.42 | 0.94 | 94 | 1006.7 |
| 20260508153005 | 15 | 286 | 3.2 | 11.3 | 0.48 | 1.27 | 0.79 | 93 | 1006.7 |
| 20260508152005 | 15 | 257 | 4.8 | 22.5 | 0.46 | 1.22 | 0.74 | 93 | 1006.6 |
| 20260508151505 | 15 | 276 | 4.8 | 22.5 | 0.48 | 1.22 | 0.74 | 93 | 1006.6 |
| 20260508151005 | 16 | 256 | 9.7 | 20.9 | 0.46 | 1.19 | 0.71 | 93 | 1006.6 |
| 20260508145505 | 17 | 282 | 9.7 | 33.8 | 0.43 | 1.12 | 0.64 | 94 | 1006.4 |
| 20260508145005 | 17 | 299 | 11.3 | 33.8 | 0.25 | 0.94 | 0.46 | 95 | 1006.2 |
| 20260508144505 | 17 | 349 | 12.9 | 33.8 | 0.10 | 0.79 | 0.30 | 95 | 1006.1 |
| 20260508144004 | 17 | 353 | 9.7 | 32.2 | 0.13 | 0.79 | 0.30 | 95 | 1006.1 |
| 20260508143505 | 17 | 10 | 12.9 | 32.2 | 0.13 | 0.79 | 0.30 | 95 | 1006.1 |
| 20260508143005 | 17 | 353 | 9.7 | 25.7 | 0.15 | 0.79 | 0.30 | 95 | 1006.1 |
| 20260508142505 | 17 | 351 | 11.3 | 25.7 | 0.18 | 0.76 | 0.28 | 95 | 1006.2 |
| 20260508142005 | 17 | 354 | 9.7 | 25.7 | 0.18 | 0.76 | 0.28 | 95 | 1006.5 |
| 20260508141505 | 17 | 2 | 12.9 | 24.1 | 0.18 | 0.74 | 0.25 | 95 | 1006.6 |
| 20260508141005 | 17 | 350 | 11.3 | 27.4 | 0.18 | 0.74 | 0.25 | 95 | 1006.7 |
| 20260508140006 | 17 | 357 | 11.3 | 27.4 | 0.15 | 0.71 | 0.23 | 95 | 1006.7 |
| 20260508135005 | 17 | 7 | 9.7 | 38.6 | 0.15 | 0.69 | 0.20 | 94 | 1007.1 |
| 20260508134505 | 17 | 4 | 11.3 | 38.6 | 0.15 | 0.69 | 0.20 | 94 | 1007.1 |
| 20260508134005 | 17 | 357 | 8.0 | 38.6 | 0.15 | 0.66 | 0.18 | 94 | 1007.2 |
| 20260508133505 | 17 | 356 | 8.0 | 27.4 | 0.15 | 0.66 | 0.18 | 94 | 1007.4 |
| 20260508133005 | 17 | 354 | 6.4 | 27.4 | 0.15 | 0.61 | 0.15 | 94 | 1007.6 |
| 20260508132505 | 17 | 356 | 11.3 | 27.4 | 0.10 | 0.58 | 0.10 | 93 | 1007.5 |
| 20260508131005 | 17 | 3 | 11.3 | 32.2 | 0.08 | 0.56 | 0.08 | 93 | 1007.6 |
| 20260508130005 | 17 | 353 | 8.0 | 25.7 | 0.08 | 0.56 | 0.08 | 93 | 1007.7 |
| 20260508125507 | 17 | 6 | 11.3 | 20.9 | 0.33 | 0.56 | 0.08 | 93 | 1007.7 |
| 20260508125005 | 17 | 8 | 8.0 | 20.9 | 0.30 | 0.53 | 0.05 | 93 | 1007.8 |
| 20260508124505 | 17 | 356 | 9.7 | 24.1 | 0.30 | 0.53 | 0.05 | 93 | 1008.0 |
| 20260508124005 | 17 | 16 | 4.8 | 24.1 | 0.25 | 0.51 | 0.03 | 93 | 1008.1 |
| 20260508123505 | 17 | 1 | 11.3 | 22.5 | 0.25 | 0.51 | 0.03 | 92 | 1008.1 |
| 20260508123005 | 17 | 5 | 8.0 | 19.3 | 0.23 | 0.48 | 0.00 | 92 | 1008.3 |
| 20260508122504 | 17 | 0 | 6.4 | 19.3 | 0.23 | 0.48 | 0.00 | 92 | 1008.4 |
| 20260508122005 | 17 | 12 | 8.0 | 19.3 | 0.23 | 0.48 | 0.00 | 92 | 1008.6 |
| 20260508121505 | 17 | 348 | 3.2 | 19.3 | 0.23 | 0.48 | 0.00 | 91 | 1008.7 |
| 20260508121005 | 17 | 1 | 6.4 | 19.3 | 0.00 | 0.48 | 0.23 | 91 | 1008.7 |
| 20260508120005 | 17 | 346 | 6.4 | 19.3 | 0.00 | 0.30 | 0.00 | 91 | 1008.8 |
| 20260508115504 | 17 | 356 | 8.0 | 19.3 | 0.00 | 0.30 | 0.23 | 90 | 1009.0 |
| 20260508115004 | 17 | 8 | 8.0 | 19.3 | 0.00 | 0.30 | 0.23 | 90 | 1009.2 |
| 20260508114505 | 17 | 334 | 6.4 | 19.3 | 0.00 | 0.30 | 0.23 | 90 | 1009.2 |
| 20260508114004 | 17 | 12 | 9.7 | 19.3 | 0.00 | 0.30 | 0.23 | 90 | 1009.2 |
| 20260508113505 | 17 | 346 | 6.4 | 24.1 | 0.00 | 0.30 | 0.23 | 90 | 1009.4 |
| 20260508113005 | 17 | 345 | 8.0 | 24.1 | 0.00 | 0.30 | 0.23 | 90 | 1009.6 |
| 20260508112505 | 17 | 6 | 4.8 | 25.7 | 0.00 | 0.30 | 0.23 | 90 | 1009.7 |
| 20260508111505 | 17 | 8 | 8.0 | 20.9 | 0.00 | 0.30 | 0.23 | 90 | 1009.7 |
| 20260508111005 | 17 | 8 | 11.3 | 25.7 | 0.00 | 0.30 | 0.23 | 90 | 1009.7 |
| 20260508110005 | 17 | 22 | 9.7 | 33.8 | 0.00 | 0.30 | 0.23 | 91 | 1009.8 |
| 20260508105005 | 17 | 355 | 11.3 | 24.1 | 0.00 | 0.30 | 0.23 | 91 | 1010.3 |
| 20260508104505 | 17 | 352 | 9.7 | 24.1 | 0.00 | 0.30 | 0.23 | 92 | 1010.3 |
| 20260508104005 | 17 | 1 | 9.7 | 22.5 | 0.00 | 0.30 | 0.23 | 92 | 1010.6 |
| 20260508103505 | 17 | 340 | 4.8 | 19.3 | 0.00 | 0.30 | 0.23 | 92 | 1010.6 |
| 20260508103006 | 17 | 3 | 8.0 | 19.3 | 0.00 | 0.30 | 0.23 | 92 | 1010.7 |
| 20260508102504 | 17 | 8 | 8.0 | 19.3 | 0.00 | 0.30 | 0.23 | 92 | 1010.7 |
| 20260508102005 | 17 | 352 | 6.4 | 19.3 | 0.00 | 0.30 | 0.23 | 92 | 1010.8 |
| 20260508101005 | 17 | 10 | 8.0 | 25.7 | 0.00 | 0.30 | 0.23 | 92 | 1010.8 |
| 20260508095505 | 17 | 6 | 11.3 | 27.4 | 0.03 | 0.30 | 0.23 | 92 | 1011.2 |
| 20260508095005 | 17 | 5 | 9.7 | 27.4 | 0.03 | 0.30 | 0.23 | 92 | 1011.2 |
| 20260508093505 | 17 | 351 | 8.0 | 24.1 | 0.05 | 0.30 | 0.23 | 91 | 1011.3 |
| 20260508092505 | 17 | 354 | 8.0 | 24.1 | 0.05 | 0.30 | 0.23 | 92 | 1011.4 |
| 20260508091505 | 17 | 355 | 8.0 | 22.5 | 0.05 | 0.30 | 0.23 | 92 | 1011.4 |
| 20260508091005 | 17 | 20 | 6.4 | 22.5 | 0.05 | 0.30 | 0.23 | 92 | 1011.5 |
| 20260508085504 | 17 | 343 | 9.7 | 19.3 | 0.03 | 0.28 | 0.23 | 92 | 1011.8 |
| 20260508085004 | 17 | 351 | 4.8 | 14.5 | 0.03 | 0.28 | 0.23 | 91 | 1011.8 |
| 20260508084505 | 17 | 341 | 6.4 | 24.1 | 0.03 | 0.28 | 0.23 | 91 | 1011.8 |
| 20260508084004 | 17 | 350 | 6.4 | 24.1 | 0.00 | 0.25 | 0.20 | 90 | 1011.8 |
| 20260508083505 | 17 | 358 | 9.7 | 25.7 | 0.00 | 0.25 | 0.20 | 90 | 1011.7 |
| 20260508083006 | 17 | 12 | 12.9 | 25.7 | 0.00 | 0.25 | 0.20 | 90 | 1011.7 |
| 20260508082006 | 17 | 10 | 8.0 | 19.3 | 0.00 | 0.25 | 0.20 | 90 | 1011.7 |
| 20260508081506 | 17 | 21 | 4.8 | 20.9 | 0.00 | 0.25 | 0.20 | 89 | 1011.8 |
| 20260508081006 | 17 | 20 | 8.0 | 24.1 | 0.00 | 0.25 | 0.20 | 89 | 1011.9 |
| 20260508080006 | 17 | 21 | 8.0 | 22.5 | 0.00 | 0.25 | 0.20 | 90 | 1011.9 |
| 20260508075506 | 17 | 25 | 11.3 | 22.5 | 0.00 | 0.25 | 0.20 | 90 | 1012.0 |
| 20260508075006 | 17 | 7 | 11.3 | 22.5 | 0.00 | 0.25 | 0.20 | 90 | 1012.0 |
| 20260508074506 | 17 | 16 | 4.8 | 22.5 | 0.00 | 0.25 | 0.20 | 90 | 1012.1 |
| 20260508074006 | 17 | 38 | 9.7 | 22.5 | 0.00 | 0.25 | 0.20 | 89 | 1012.2 |
| 20260508073506 | 17 | 8 | 8.0 | 22.5 | 0.00 | 0.25 | 0.20 | 89 | 1012.4 |
| 20260508073006 | 17 | 11 | 6.4 | 22.5 | 0.00 | 0.25 | 0.20 | 89 | 1012.4 |
| 20260508071505 | 17 | 14 | 6.4 | 24.1 | 0.00 | 0.25 | 0.20 | 89 | 1012.4 |
| 20260508071006 | 17 | 7 | 9.7 | 24.1 | 0.00 | 0.25 | 0.20 | 89 | 1012.6 |
| 20260508070006 | 17 | 356 | 8.0 | 20.9 | 0.00 | 0.25 | 0.20 | 89 | 1012.6 |
| 20260508065006 | 17 | 12 | 8.0 | 20.9 | 0.00 | 0.25 | 0.20 | 89 | 1012.6 |
| 20260508064006 | 17 | 2 | 9.7 | 20.9 | 0.00 | 0.25 | 0.20 | 89 | 1012.8 |
| 20260508063006 | 17 | 20 | 8.0 | 19.3 | 0.00 | 0.25 | 0.20 | 88 | 1013.0 |
| 20260508061506 | 17 | 7 | 9.7 | 20.9 | 0.00 | 0.25 | 0.20 | 88 | 1013.4 |
| 20260508061007 | 17 | 356 | 4.8 | 27.4 | 0.00 | 0.25 | 0.20 | 88 | 1013.5 |
| 20260508060006 | 17 | 0 | 8.0 | 27.4 | 0.00 | 0.25 | 0.20 | 88 | 1013.4 |
| 20260508055506 | 17 | 0 | 8.0 | 20.9 | 0.00 | 0.25 | 0.20 | 88 | 1013.4 |
| 20260508055006 | 17 | 20 | 9.7 | 20.9 | 0.00 | 0.25 | 0.20 | 89 | 1013.5 |
| 20260508054505 | 17 | 19 | 4.8 | 14.5 | 0.00 | 0.25 | 0.20 | 89 | 1013.6 |
| 20260508053006 | 17 | 22 | 6.4 | 16.1 | 0.00 | 0.25 | 0.20 | 89 | 1013.4 |
| 20260508052506 | 17 | 3 | 8.0 | 19.3 | 0.00 | 0.25 | 0.20 | 89 | 1013.6 |
| 20260508051506 | 17 | 9 | 4.8 | 19.3 | 0.00 | 0.25 | 0.20 | 89 | 1013.9 |
| 20260508051006 | 17 | 10 | 6.4 | 19.3 | 0.00 | 0.25 | 0.20 | 89 | 1013.9 |
| 20260508050005 | 17 | 12 | 4.8 | 19.3 | 0.00 | 0.25 | 0.20 | 90 | 1014.0 |
| 20260508045506 | 17 | 25 | 6.4 | 19.3 | 0.00 | 0.25 | 0.20 | 90 | 1014.0 |
| 20260508045005 | 17 | 20 | 6.4 | 16.1 | 0.00 | 0.25 | 0.20 | 90 | 1014.0 |
| 20260508044506 | 17 | 18 | 4.8 | 9.7 | 0.00 | 0.25 | 0.20 | 89 | 1014.1 |
| 20260508044006 | 17 | 28 | 4.8 | 16.1 | 0.00 | 0.25 | 0.20 | 89 | 1014.1 |
| 20260508043505 | 17 | 18 | 6.4 | 16.1 | 0.00 | 0.25 | 0.20 | 88 | 1014.2 |
| 20260508043006 | 17 | 23 | 4.8 | 16.1 | 0.00 | 0.25 | 0.20 | 87 | 1014.4 |
| 20260508042505 | 17 | 16 | 3.2 | 19.3 | 0.00 | 0.25 | 0.20 | 88 | 1014.3 |
| 20260508042006 | 17 | 16 | 4.8 | 19.3 | 0.00 | 0.25 | 0.20 | 87 | 1014.2 |
| 20260508041506 | 17 | 25 | 4.8 | 19.3 | 0.00 | 0.25 | 0.20 | 87 | 1014.1 |
| 20260508041006 | 17 | 38 | 4.8 | 16.1 | 0.00 | 0.25 | 0.20 | 86 | 1014.3 |
| 20260508040006 | 18 | 26 | 3.2 | 12.9 | 0.00 | 0.25 | 0.20 | 84 | 1014.5 |
| 20260508035006 | 18 | 29 | 4.8 | 19.3 | 0.00 | 0.25 | 0.20 | 86 | 1014.4 |
| 20260508034506 | 17 | 23 | 6.4 | 19.3 | 0.00 | 0.25 | 0.20 | 86 | 1014.6 |